This demonstration page uses our WeatherBlox Daily Observations layout. Learn more.

Left ArrowRight Arrow

Hourly Observations for June 17, 2017

Temp ( °F °C ) Dew Point ( °F °C ) Humidity (%) Winds ( mph kmh ) Pressure ( in mb ) Visibility ( mi km ) Precip ( " mm )
12:51 am 00:51 Clear 73 22.8 5 -15 7 7 NW 9 15 29.70 1006 10 16 N/A
1:51 am 01:51 Clear 72 22.2 5 -15 7 7 WNW 8 13 29.71 1006 10 16 N/A
2:51 am 02:51 Clear 74 23.3 5 -15 7 7 NW 10 17 29.71 1006 10 16 N/A
3:51 am 03:51 Clear 77 25 7 -13.9 7 7 NNW 12 19 29.71 1006 10 16 N/A
4:51 am 04:51 Clear 74 23.3 10 -12.2 8 8 NW 5 7 29.73 1007 10 16 N/A
5:51 am 05:51 Sunny 66 18.9 8 -13.3 10 10 SE 6 9 29.76 1008 10 16 N/A
6:51 am 06:51 Sunny 73 22.8 10 -12.2 9 9 SE 5 7 29.76 1008 10 16 N/A
7:51 am 07:51 Sunny 79 26.1 13 -10.6 8 8 SE 5 7 29.77 1008 10 16 N/A
8:51 am 08:51 Sunny 89 31.7 19 -7.2 7 7 WSW 7 11 29.75 1008 10 16 N/A
9:51 am 09:51 Sunny 95 35 19 -7.2 6 6 NW 17 28 29.73 1007 10 16 N/A
10:51 am 10:51 Sunny 98 36.7 19 -7.2 6 6 WNW 18 30 29.72 1006 10 16 N/A
11:51 am 11:51 Sunny 101 38.3 16 -8.9 4 4 WNW 20 31 29.70 1006 10 16 N/A
12:51 pm 12:51 Sunny 103 39.4 16 -8.9 4 4 WNW 15 24 29.67 1005 10 16 N/A
1:51 pm 13:51 Sunny 105 40.6 16 -8.9 4 4 NW 14 22 29.64 1004 10 16 N/A
2:51 pm 14:51 Sunny 106 41.1 16 -8.9 4 4 NW 16 26 29.61 1003 10 16 N/A
3:51 pm 15:51 Sunny 106 41.1 16 -8.9 4 4 WNW 20 31 29.59 1002 10 16 N/A
4:51 pm 16:51 Sunny 104 40 15 -9.4 4 4 W 20 31 29.58 1002 10 16 N/A
5:51 pm 17:51 Sunny 102 38.9 16 -8.9 4 4 W 17 28 29.60 1002 10 16 N/A
6:51 pm 18:51 Sunny 98 36.7 17 -8.3 5 5 WNW 20 31 29.60 1002 10 16 N/A
7:51 pm 19:51 Clear 93 33.9 19 -7.2 7 7 WNW 15 24 29.62 1003 10 16 N/A
8:51 pm 20:51 Clear 91 32.8 18 -7.8 7 7 NW 14 22 29.62 1003 10 16 N/A
9:51 pm 21:51 Clear 88 31.1 17 -8.3 7 7 WNW 16 26 29.64 1004 10 16 N/A
10:51 pm 22:51 Clear 84 28.9 16 -8.9 8 8 NNW 12 19 29.65 1004 10 16 N/A
11:51 pm 23:51 Clear 85 29.4 17 -8.3 8 8 NW 13 20 29.64 1004 10 16 N/A

Powered by AerisWeather